Location: Saint-Hippolyte
(43.6394°N, 4.7559°E)
Time: 15:39:53
(UTC+00:00)

S3M - Pass Details

Date: 24 October 2020
Orbit: 950 x 1003 km, 83.0° (Epoch: 23 November)

Event Time Altitude Azimuth Distance (km) Brightness Sun altitude
Rises 18:33:49 0° 180° (S) 3,608 6.9 -20.7°
Reaches altitude 10° 18:36:17 10° 178° (S) 2,666 6.2 -21.2°
Maximum altitude 18:42:21 74° 95° (E) 993 3.8 -22.3°
Drops below altitude 10° 18:48:29 10° 11° (NNE) 2,699 6.2 -23.4°
Sets 18:51:00 0° 10° (N) 3,655 7.0 -23.8°
